Regional Weather Roundup
Issued by NWS

Home | Current Version | Previous Version | Graphics & Text | Print | Product List | Glossary On
Versions: 1 2 3 4 5 6 7 8 9 10 11 12 13 14 15 16 17 18 19 20 21 22 23 24 25 26 27 28 29 30 31 32 33 34 35 36 37 38 39 40 41 42 43 44 45 46 47 48 49 50
000
ASUS43 KOAX 232202
RWRNE

WEATHER ROUNDUP FOR NEBRASKA
NATIONAL WEATHER SERVICE OMAHA NE
400 PM CST MON JAN 23 2017

NOTES: SATELLITE DATA IS BEING USED TO AUGMENT CLOUD COVER ABOVE
       12000 FEET.
       "FAIR" INDICATES FEW OR NO CLOUDS BELOW 12,000 FEET WITH NO
       SIGNIFICANT WEATHER AND/OR OBSTRUCTIONS TO VISIBILITY.

  * THESE STATIONS DO NOT REPORT WEATHER SUCH AS RAIN...SNOW OR FOG.

NEZ001>004-019>022-054>056-232300-
NEBRASKA PANHANDLE

CITY           SKY/WX    TMP DP  RH WIND       PRES   REMARKS
SCOTTSBLUFF    PTSUNNY   48  26  42 N6        29.54R
ALLIANCE       MOSUNNY   47  23  38 W7        29.53S
CHADRON        SUNNY     41  28  60 NE10      29.55R
SIDNEY         CLOUDY    46  26  45 E9        29.54S
$$

NEZ057>060-069>072-079>082-232300-
SOUTHWEST NEBRASKA

CITY           SKY/WX    TMP DP  RH WIND       PRES   REMARKS
NORTH PLATTE   SUNNY     51  29  42 S10       29.58S
IMPERIAL       SUNNY     47  27  45 CALM      29.56S
LEXINGTON      SUNNY     47  32  55 SE12      29.62S
MCCOOK         SUNNY     54  31  41 S9        29.57F
OGALLALA       SUNNY     48  29  47 CALM      29.56F
$$

NEZ005>010-023>029-035>040-094-232300-
NORTH CENTRAL NEBRASKA

CITY           SKY/WX    TMP DP  RH WIND       PRES   REMARKS
VALENTINE      MOSUNNY   46  27  47 S12       29.60S
AINSWORTH      SUNNY     43  31  62 SE10      29.61S
BROKEN BOW     SUNNY     45  34  65 S15G23    29.61R
O`NEILL        CLOUDY    35  30  81 E10       29.69S WCI  28
ORD            PTSUNNY   39  31  72 SE16      29.64F WCI  30
THEDFORD       SUNNY     49  29  47 S14       29.59R
$$

NEZ041-046>049-061>064-073>077-083>087-232300-
SOUTH CENTRAL NEBRASKA

CITY           SKY/WX    TMP DP  RH WIND       PRES   REMARKS
GRAND ISLAND   CLOUDY    32  32 100 E13       29.70F FOG     WCI  22
AURORA         CLOUDY    32  32 100 E14       29.70F FOG     WCI  22
HASTINGS       MOSUNNY   38  34  85 E13       29.68F FOG     WCI  30
HEBRON         CLOUDY    42  34  74 E10       29.72S
HOLDREGE       SUNNY     48  32  53 SE14      29.62F
KEARNEY *      SUNNY     45  36  70 E13       29.65S
YORK           CLOUDY    36  34  93 SE8       29.73F WCI  29
$$

NEZ011>018-030>034-042>045-232300-
NORTHEAST NEBRASKA

CITY           SKY/WX    TMP DP  RH WIND       PRES   REMARKS
NORFOLK        CLOUDY    35  28  75 SE10      29.74F WCI  27
ALBION         CLOUDY    38  32  79 E12       29.71S HAZE    WCI  30
BLAIR          CLOUDY    36  30  80 E8        29.79F WCI  29
FREMONT        CLOUDY    36  31  82 E7        29.79F WCI  31
TEKAMAH        MOSUNNY   34  28  79 E9        29.81F WCI  27
WAYNE          CLOUDY    33  30  88 SE9       29.78S WCI  26
$$

NEZ050>053-065>068-078-088>093-232300-
SOUTHEAST NEBRASKA

CITY           SKY/WX    TMP DP  RH WIND       PRES   REMARKS
LINCOLN        MOSUNNY   38  31  76 E10       29.78F WCI  31
OMAHA EPPLEY   CLOUDY    36  28  73 E9        29.81F WCI  29
BEATRICE       CLOUDY    39  34  80 SE9       29.76F WCI  33
FALLS CITY     MOSUNNY   37  31  78 E8        29.81F WCI  31
NEBRASKA CITY  PTSUNNY   34  29  81 E8        29.81F WCI  28
PLATTSMOUTH    PTSUNNY   35  28  75 E7        29.80F WCI  29
$$

NEZ044-045-051>053-067-232300-
OMAHA AREA

CITY           SKY/WX    TMP DP  RH WIND       PRES   REMARKS
OMAHA EPPLEY   CLOUDY    36  28  73 E9        29.81F WCI  29
BLAIR          CLOUDY    36  30  80 E8        29.79F WCI  29
FREMONT        CLOUDY    36  31  82 E7        29.79F WCI  31
MILLARD        PTSUNNY   38  31  75 SE7       29.81S WCI  33
OFFUTT AFB     PTSUNNY   35  33  92 E5        29.81S WCI  31
PLATTSMOUTH    PTSUNNY   35  28  75 E7        29.80F WCI  29
WAHOO          CLOUDY    36  31  81 SE8       29.79F WCI  30
$$



USA.gov is the U.S. government's official web portal to all federal, state and local government web resources and services.